Left ArrowRight Arrow

Hourly Observations for April 24, 2022

Temp ( °F °C ) Dew Point ( °F °C ) Humidity (%) Winds ( mph kmh ) Pressure ( in mb ) Visibility ( mi km ) Precip ( " mm )
12:51 am 00:51 Clear 43 6.1 15 -9.4 32 32 N 6 9 30.28 1026 10 16 0.00 0.00
1:51 am 01:51 Clear 41 5 16 -8.9 36 36 NNE 3 6 30.29 1026 10 16 0.00 0.00
2:51 am 02:51 Clear 40 4.4 15 -9.4 36 36 NNE 9 15 30.30 1026 10 16 0.00 0.00
3:51 am 03:51 Clear 39 3.9 15 -9.4 38 38 NNE 8 13 30.32 1027 10 16 0.00 0.00
4:51 am 04:51 Clear 36 2.2 15 -9.4 42 42 NNE 7 11 30.33 1027 10 16 0.00 0.00
5:51 am 05:51 Partly Cloudy 35 1.7 14 -10 42 42 NNE 7 11 30.34 1027 10 16 0.00 0.00
6:51 am 06:51 Mostly Cloudy 39 3.9 15 -9.4 38 38 NE 8 13 30.37 1028 10 16 0.00 0.00
7:51 am 07:51 Mostly Cloudy 40 4.4 15 -9.4 36 36 NE 7 11 30.37 1028 10 16 0.00 0.00
8:51 am 08:51 Mostly Cloudy 41 5 17 -8.3 38 38 E 6 9 30.37 1029 10 16 0.00 0.00
9:51 am 09:51 Partly Cloudy 44 6.7 15 -9.4 31 31 N 7 11 30.36 1028 10 16 0.00 0.00
10:51 am 10:51 Mostly Cloudy 45 7.2 18 -7.8 34 34 E 7 11 30.34 1027 10 16 0.00 0.00
11:51 am 11:51 Partly Cloudy 48 8.9 18 -7.8 30 30 NW 3 6 30.32 1027 10 16 0.00 0.00
12:51 pm 12:51 Partly Cloudy 50 10 20 -6.7 30 30 VRB 5 7 30.30 1026 10 16 0.00 0.00
1:51 pm 13:51 Partly Cloudy 48 8.9 24 -4.4 39 39 S 12 19 30.28 1026 10 16 0.00 0.00
2:51 pm 14:51 Mostly Cloudy 49 9.4 25 -3.9 39 39 S 9 15 30.27 1025 10 16 0.00 0.00
3:51 pm 15:51 Partly Cloudy 49 9.4 28 -2.2 44 44 S 9 15 30.25 1024 10 16 0.00 0.00
4:51 pm 16:51 Mostly Cloudy 52 11.1 27 -2.8 38 38 SSW 7 11 30.23 1024 10 16 0.00 0.00
5:51 pm 17:51 Mostly Cloudy 51 10.6 29 -1.7 43 43 S 6 9 30.23 1024 10 16 0.00 0.00
6:51 pm 18:51 Partly Cloudy 50 10 31 -0.6 48 48 SSW 7 11 30.23 1024 10 16 0.00 0.00
7:51 pm 19:51 Mostly Cloudy 47 8.3 32 0 56 56 Calm 30.23 1024 10 16 0.00 0.00
8:51 pm 20:51 Clear 46 7.8 33 0.6 61 61 Calm 30.24 1024 10 16 0.00 0.00
9:51 pm 21:51 Clear 44 6.7 34 1.1 68 68 WSW 3 6 30.24 1024 10 16 0.00 0.00
10:51 pm 22:51 Partly Cloudy 42 5.6 34 1.1 73 73 Calm 30.24 1024 10 16 0.00 0.00
11:51 pm 23:51 Partly Cloudy 42 5.6 33 0.6 71 71 Calm 30.24 1024 10 16 0.00 0.00

Powered by Vaisala Xweather